Weather History for Zanesville, OH

Change the Weather History Date:

Thursday, June 21, 2012

  Actual Average Record
Temperature  
Mean Temperature 80 °F 71 °F  
Max Temperature 91 °F 82 °F 97 °F (1988)
Min Temperature 68 °F 60 °F 44 °F (1963)
Degree Days  
Heating Degree Days 0 0  
Month to date heating degree days 23 30  
Since 1 June heating degree days 23 30  
Since 1 July heating degree days 4591 5569  
Cooling Degree Days 15 6  
Month to date cooling degree days 108 95  
Year to date cooling degree days 252 149  
Since 1 June cooling degree days 108 95  
Growing Degree Days 30 (Base 50)    
Moisture  
Dew Point 66 °F    
Average Humidity 69    
Maximum Humidity 97    
Minimum Humidity 41    
Precipitation  
Precipitation 0.00 in 0.14 in 2.26 in (1974)
Month to date precipitation 2.08 2.80  
Year to date precipitation 15.08 18.26  
Sea Level Pressure  
Sea Level Pressure 29.96 in    
Wind  
Wind Speed 4 mph (SW)    
Max Wind Speed 16 mph    
Max Gust Speed 21 mph    
Visibility 8 miles    
Events      
T = Trace of Precipitation, MM = Missing Value Source: NWS Daily Summary

Daily Weather History Graph

Daily Weather History Graph

Search for Another Location

Airport:

Trip Planner

Search our weather history database for the weather conditions in past years. The results will help you decide how hot, cold, wet, or windy it might be!

Date:

Astronomy

Jun. 21, 2012 Rise Set
Actual Time 5:59 AM EDT 8:59 PM EDT
Civil Twilight 5:26 AM EDT 9:32 PM EDT
Nautical Twilight 4:44 AM EDT 10:14 PM EDT
Astronomical Twilight 3:55 AM EDT 11:02 PM EDT
Moon 7:56 AM EDT (6/21) 10:22 PM EDT (6/21)
Length of Visible Light 16h 06m
Length of Day
15h 00m
Waxing Crescent, 4% of the Moon is Illuminated
Jun 21
Waxing Crescent
Jun 26
First Quarter
Jul 3
Full
Jul 10
Last Quarter
Jul 19
New

Hourly Weather History & Observations

Time (EDT) Temp. Heat Index Dew Point Humidity Pressure Visibility Wind Dir Wind Speed Gust Speed Precip Events Conditions
12:53 AM 72.0 °F - 70.0 °F 93% 30.03 in 5.0 mi Calm Calm - N/A   Clear
1:53 AM 73.0 °F - 69.1 °F 87% 30.03 in 6.0 mi Calm Calm - N/A   Clear
2:53 AM 71.1 °F - 68.0 °F 90% 30.03 in 5.0 mi Calm Calm - N/A   Clear
3:53 AM 70.0 °F - 68.0 °F 93% 30.03 in 5.0 mi Calm Calm - N/A   Clear
4:53 AM 69.1 °F - 66.9 °F 93% 30.02 in 4.0 mi Calm Calm - N/A   Clear
5:53 AM 68.0 °F - 66.9 °F 96% 30.04 in 4.0 mi Calm Calm - N/A   Clear
6:53 AM 69.1 °F - 68.0 °F 96% 30.04 in 3.0 mi South 3.5 mph - N/A   Clear
7:53 AM 72.0 °F - 68.0 °F 87% 30.04 in 6.0 mi Calm Calm - N/A   Clear
8:53 AM 77.0 °F - 69.1 °F 76% 30.03 in 7.0 mi Calm Calm - N/A   Clear
9:53 AM 82.0 °F 85.9 °F 70.0 °F 67% 30.02 in 8.0 mi SW 3.5 mph - N/A   Clear
10:53 AM 84.9 °F 87.6 °F 66.9 °F 55% 30.00 in 9.0 mi SSW 4.6 mph - N/A   Clear
11:53 AM 87.8 °F 90.4 °F 66.2 °F 49% 30.02 in 10.0 mi WSW 5.8 mph - N/A   Clear
12:53 PM 89.1 °F 91.0 °F 64.9 °F 45% 29.98 in 10.0 mi SW 9.2 mph 16.1 mph N/A   Clear
1:53 PM 89.1 °F 91.3 °F 66.0 °F 46% 29.96 in 10.0 mi WSW 9.2 mph - N/A   Scattered Clouds
2:53 PM 88.0 °F 89.3 °F 64.0 °F 45% 29.94 in 10.0 mi WSW 6.9 mph - N/A   Mostly Cloudy
3:53 PM 91.0 °F 93.0 °F 64.9 °F 42% 29.91 in 10.0 mi WSW 8.1 mph - N/A   Partly Cloudy
4:53 PM 91.0 °F 92.6 °F 64.0 °F 41% 29.89 in 10.0 mi West 10.4 mph - N/A   Partly Cloudy
5:53 PM 90.0 °F 90.6 °F 63.0 °F 40% 29.87 in 10.0 mi SW 8.1 mph - N/A   Partly Cloudy
6:53 PM 88.0 °F 88.7 °F 63.0 °F 43% 29.87 in 10.0 mi SW 5.8 mph - N/A   Clear
7:53 PM 86.0 °F 86.8 °F 63.0 °F 46% 29.88 in 10.0 mi WSW 4.6 mph - N/A   Clear
8:53 PM 82.9 °F 83.7 °F 62.1 °F 49% 29.88 in 10.0 mi WSW 4.6 mph - N/A   Clear
9:53 PM 80.1 °F 81.2 °F 62.1 °F 54% 29.88 in 10.0 mi WSW 3.5 mph - N/A   Clear
10:53 PM 78.1 °F - 63.0 °F 60% 29.88 in 10.0 mi SSW 3.5 mph - N/A   Clear
11:53 PM 73.9 °F - 64.9 °F 73% 29.88 in 10.0 mi South 4.6 mph - N/A   Clear